Content
SEND FEEDBACK

Daily
Averages
Monthly
Summary
United States of America

WILMINGTON, NORTH CAROLINA


Home > North America > United States > North Carolina
Elevation: 72 feet     Latitude: 34 16N     Longitude: 077 54W

WEATHER
 
SELECT A DAY
Number of Records: 214,110;   Date Range: 1/1/95 - 12/19/14
 
SHARE

PRINT THIS DATA

[ ← Previous Day ]
WEATHER ALMANAC - AUGUST 15, 2014
[ Next Day → ]
[ °C ]   °F
Weather ElementAverageHighLow
Temperature76.7 °F87.1 °F (10:53 am)66 °F (5:53 am)
Dewpoint63.6 °F69.1 °F (3:53 pm)55.9 °F (3:53 pm)
Humidity67.4 %93 % (12:53 am)36 % (3:53 pm)
Barometer30.00 in30.05 in (3:53 pm)29.97 in (3:53 am)
Wind Speed3.1 mph9.2 mph (3:53 pm)
Weather ElementAverage
Visibility9.4 mi
Wind DirectionENE (76.3 °)

Weather ElementTotal
Precipitation---
Cooling Degree Days11.6 (Base 65)
Growing Degree Days26.6 (Base 50)
Averaged from 24 records on August 15, 2014
WEATHER CONDITIONS BREAKOUT
WIND DIRECTION BREAKOUT
WEATHER BY HOUR - AUGUST 15, 2014
[ °C ]   °F
Local TimeTemperatureDewpointHumidityBarometerVisibilityWind DirectionWind SpeedGust SpeedPrecipitationEventsConditions
12:53 AM69.1 °F66.9 °F93 %30.01 in10.0 miCalmClear
1:53 AM69.1 °F66.0 °F90 %30.01 in10.0 miCalmClear
2:53 AM68.0 °F66.0 °F93 %29.99 in7.0 miCalmClear
3:53 AM68.0 °F66.0 °F93 %29.98 in7.0 miCalmClear
4:53 AM66.9 °F64.9 °F93 %29.97 in9.0 miCalmClear
5:53 AM66.0 °F64.0 °F93 %29.98 in8.0 miCalmClear
6:53 AM66.0 °F64.0 °F93 %30.01 in6.0 miCalmClear
7:53 AM70.0 °F66.9 °F90 %30.02 in9.0 miCalmClear
8:53 AM75.9 °F69.1 °F79 %30.04 in10.0 miCalmClear
9:53 AM80.6 °F62.6 °F54 %30.05 in10.0 miWSW (240°)3.5 mphClear
10:53 AM84.9 °F61.0 °F44 %30.05 in10.0 miWNW (290°)4.6 mphClear
11:53 AM84.9 °F60.1 °F43 %30.04 in10.0 miSW (230°)4.6 mphClear
12:53 PM86.0 °F61.0 °F43 %30.02 in10.0 miVariable4.6 mphClear
1:53 PM87.1 °F62.1 °F43 %30.00 in10.0 miSSE (150°)4.6 mphClear
2:53 PM87.1 °F61.0 °F41 %29.99 in10.0 miSE (140°)9.2 mphClear
3:53 PM86.0 °F55.9 °F36 %29.98 in10.0 miSSE (150°)8.1 mphClear
4:53 PM84.9 °F57.0 °F38 %29.98 in10.0 miSE (130°)9.2 mphClear
5:53 PM84.0 °F62.1 °F47 %29.99 in10.0 miSSE (150°)8.1 mphClear
6:53 PM82.0 °F63.0 °F52 %29.99 in10.0 miSouth (180°)9.2 mphClear
7:53 PM79.0 °F64.9 °F62 %29.99 in10.0 miSouth (170°)8.1 mphClear
8:53 PM77.0 °F64.9 °F66 %29.99 in10.0 miCalmClear
9:53 PM75.0 °F64.9 °F71 %30.01 in10.0 miCalmClear
10:53 PM73.0 °F64.9 °F76 %30.01 in10.0 miCalmClear
11:53 PM71.1 °F66.0 °F84 %30.00 in10.0 miCalmClear
Hourly data recorded from KILM, located miles away from Wilmington, North Carolina







STORIES FROM OUR PARTNERS